[[[{"header":{"parameterUnit":"kt","parameterCategory":2,"dx":1,"dy":1,"la1":30.253999710083008,"la2":30.299108505249023,"lo1":-89.0895004272461,"lo2":-89.04439544677734,"nx":28,"ny":28,"refTime":"2022-10-17T21:00:00:Z","depth":0,"parameterNumber":1,"parameterNumberName":"U-component_of_WINDS"},"data":[1.7186,1.7163,1.7177,1.7157,1.7167,1.7155,1.7155,1.7157,1.7162,1.715,1.7145,1.7157,1.7166,1.7164,1.7159,1.7164,1.7159,1.7142,1.715,1.7218,1.7228,1.7238,1.7243,1.7142,1.7141,1.7075,1.7074,1.7074,1.7237,1.7247,1.7241,1.7243,1.7238,1.7265,1.7269,1.7262,1.7251,1.7257,1.7253,1.7243,1.7237,1.7252,1.7248,1.7237,1.7247,1.7235,1.7233,1.7233,1.7309,1.7314,1.7226,1.7226,1.7226,1.7226,1.7226,1.7226,1.7334,1.7319,1.7329,1.7322,1.7328,1.733,1.7318,1.7332,1.7326,1.7323,1.7341,1.7328,1.7336,1.7337,1.7341,1.7331,1.7347,1.7336,1.7332,1.7328,1.7321,1.7411,1.7331,1.7332,1.7332,1.7332,1.7332,0,1.7407,1.742,1.7414,1.7413,1.7409,1.7409,1.7411,1.7405,1.7435,1.7428,1.7419,1.7416,1.741,1.7402,1.7401,1.7407,1.7429,1.7434,1.7426,1.7414,1.7405,1.7406,1.7524,1.7435,1.7436,1.7436,1.7437,1.7437,1.7502,1.7484,1.75,1.7495,1.7499,1.7489,1.7486,1.7514,1.7509,1.7516,1.7501,1.7495,1.749,1.7473,1.7488,1.7483,1.7493,1.7457,1.7491,1.7483,1.7487,1.7486,1.7484,1.7447,1.7446,1.7445,1.7444,0,1.7553,1.7575,1.7551,1.7569,1.7573,1.7553,1.7567,1.7554,1.7569,1.7552,1.755,1.7572,1.7562,1.7583,1.7575,1.7586,1.7551,1.7563,1.7549,1.7551,1.7518,1.7519,1.7414,1.7401,1.7511,1.751,1.7509,0,1.764,1.7615,1.7649,1.7634,1.7608,1.7636,1.7609,1.7618,1.7625,1.7612,1.7643,1.763,1.7658,1.7648,1.7664,1.764,1.7639,1.7645,1.7648,1.7639,1.7638,1.7632,1.7635,1.7661,1.7662,1.7662,1.7663,0,1.7714,1.7704,1.7681,1.7681,1.7696,1.7685,1.769,1.7698,1.7694,1.7692,1.769,1.7686,1.7683,1.768,1.7699,1.7722,1.7671,1.7706,1.7676,1.7675,1.7659,1.7659,1.7566,1.7663,1.7664,1.7664,1.7664,0,1.7785,1.7784,1.7748,1.776,1.7756,1.7741,1.7739,1.773,1.7736,1.7745,1.7744,1.7764,1.7747,1.778,1.7755,1.7778,1.7774,1.7778,1.7776,1.7771,1.7806,1.7746,1.7659,1.7648,1.7774,1.7775,1.7775,0,1.7863,1.7832,1.7854,1.7819,1.7807,1.7841,1.7824,1.7828,1.7838,1.7829,1.7841,1.783,1.7859,1.7857,1.7844,1.7853,1.7823,1.7859,1.7841,1.784,1.7835,1.7757,1.7736,1.7677,1.7787,1.7786,1.7785,0,1.7925,1.7943,1.7935,1.7936,1.7945,1.7935,1.7917,1.7912,1.7904,1.7905,1.7889,1.7875,1.7896,1.7893,1.7909,1.7893,1.7845,1.7916,1.7917,1.79,1.7796,1.7777,1.7767,1.7859,1.7858,1.7856,1.7795,0,1.8022,1.8009,1.799,1.7991,1.7987,1.7966,1.7986,1.7979,1.7995,1.8005,1.7983,1.799,1.7983,1.7978,1.7993,1.795,1.7959,1.7981,1.801,1.796,1.794,1.7932,1.8039,1.804,1.8041,1.8041,0,0,1.8089,1.807,1.8094,1.8077,1.8074,1.8107,1.8083,1.8084,1.8085,1.8082,1.81,1.808,1.8084,1.8053,1.804,1.8038,1.8031,1.8047,1.7984,1.7978,1.7972,1.795,1.7942,1.8043,1.8043,1.8043,1.8044,0,1.8127,1.8133,1.8109,1.8112,1.8116,1.8128,1.8123,1.8132,1.8137,1.8116,1.8141,1.813,1.8113,1.8113,1.8111,1.8053,1.8071,1.805,1.8011,1.7992,1.7985,1.7978,1.7955,1.7947,1.8046,1.8046,1.8046,0,1.8189,1.8196,1.8187,1.8183,1.8186,1.8172,1.821,1.8194,1.8184,1.8218,1.8195,1.8201,1.8203,1.8173,1.816,1.8175,1.8106,1.8132,1.8127,1.8124,1.8107,1.8098,1.809,1.8195,1.8195,1.8196,0,0,1.8219,1.8207,1.8222,1.8193,1.8193,1.821,1.8205,1.8219,1.822,1.8221,1.8228,1.8228,1.8218,1.8211,1.8203,1.8167,1.8168,1.8149,1.8142,1.8136,1.8131,1.8111,1.8103,1.8197,1.8197,1.8197,0,0,1.8232,1.8248,1.8264,1.8233,1.8234,1.8246,1.8227,1.8245,1.824,1.8244,1.8266,1.8267,1.8239,1.8243,1.8263,1.8213,1.8242,1.8238,1.821,1.8202,1.8195,1.8192,1.8299,0,0,0,0,0,1.828,1.8247,1.8261,1.8258,1.8252,1.8239,1.8238,1.8256,1.8276,1.8261,1.827,1.829,1.8259,1.8277,1.8274,1.825,1.8219,1.8215,1.8211,1.8168,1.8158,1.8151,0,0,0,0,0,0,1.8279,1.8277,1.8262,1.8271,1.827,1.824,1.8278,1.8282,1.8278,1.8282,1.8288,1.829,1.8305,1.828,1.8277,1.8253,1.8301,1.8217,1.8214,1.8211,1.8165,1.8157,1.8151,0,0,0,0,0,1.8279,1.8277,1.8262,1.8272,1.8271,1.8287,1.828,1.8283,1.828,1.8293,1.8296,1.8294,1.8304,1.8302,1.8278,1.8254,1.8303,1.8302,1.8215,1.8213,1.821,1.8161,0,0,0,0,0,0,1.8279,1.828,1.8262,1.8263,1.8285,1.8289,1.829,1.8284,1.8292,1.8294,1.8301,1.8304,1.8302,1.8301,1.83,1.8254,1.8305,1.8303,1.8303,1.8213,1.8211,1.8209,0,0,0,0,0,0,1.8281,1.828,1.8262,1.8279,1.8281,1.8291,1.8292,1.8274,1.8291,1.8299,1.8302,1.8302,1.8304,1.8301,1.83,1.8271,1.8306,1.8305,1.8304,1.8304,1.8212,1.821,0,0,0,0,0,0,1.8281,1.828,1.8279,1.828,1.8282,1.8287,1.8275,1.8267,1.8306,1.8298,1.831,1.8312,1.8303,1.8302,1.83,1.8271,1.8271,1.8306,1.8305,1.8305,1.8304,0,0,0,0,0,0,0,1.828,1.8284,1.826,1.8282,1.8284,1.8266,1.8266,1.8266,1.8307,1.8308,1.831,1.8311,1.8313,1.8312,1.831,1.8271,0,0,1.8306,1.8306,0,0,0,0,0,0,0,0,1.8285,1.8284,1.826,1.8261,1.8261,1.8266,1.8266,1.8266,1.8307,1.8308,1.8309,1.831,1.8313,1.8312,1.831,0,0,0,0,0,0,0,0,0,0,0,0,0,0,0,1.826,1.8261,0,1.8266,1.8266,1.8266,1.8307,1.8308,1.8309,1.831,1.8312,1.8311,1.8311,0,0,0,0,0,0,0,0,0,0,0,0,0,0,0,0,0,0,0,0,0,0,0,0,0,0,0,0,0,0,0,0,0,0,0,0,0,0,0,0,0,0,0,0,0,0,0,0,0,0,0,0,0,0,0,0,0,0,0,0,0,0,0,0,0,0,0,0,0]}],[{"header":{"parameterUnit":"kt","parameterCategory":2,"dx":1,"dy":1,"la1":30.253999710083008,"la2":30.299108505249023,"lo1":-89.0895004272461,"lo2":-89.04439544677734,"nx":28,"ny":28,"refTime":"2022-10-17T21:00:00:Z","depth":0,"parameterNumber":2,"parameterNumberName":"V-component_of_WINDS"},"data":[-12.6486,-12.6696,-12.6724,-12.6975,-12.7041,-12.7216,-12.7286,-12.7379,-12.7459,-12.7668,-12.7792,-12.7836,-12.7921,-12.8072,-12.8204,-12.8219,-12.8273,-12.8332,-12.8339,-12.8059,-12.8021,-12.7985,-12.7938,-12.8344,-12.8344,-12.8625,-12.8628,-12.863,-12.6287,-12.6356,-12.6497,-12.6649,-12.677,-12.6731,-12.6847,-12.6949,-12.7104,-12.7203,-12.7325,-12.7509,-12.7655,-12.772,-12.7863,-12.7959,-12.7945,-12.7996,-12.7987,-12.8001,-12.7703,-12.7653,-12.8005,-12.8005,-12.8005,-12.8004,-12.8004,-12.8004,-12.5932,-12.6057,-12.6164,-12.6315,-12.6398,-12.6499,-12.6621,-12.6672,-12.6806,-12.6961,-12.6961,-12.7135,-12.7234,-12.7414,-12.7478,-12.7613,-12.7559,-12.7619,-12.7634,-12.7649,-12.7664,-12.7258,-12.7637,-12.7636,-12.7636,-12.7635,-12.7634,0,-12.5678,-12.5692,-12.5826,-12.5969,-12.608,-12.6191,-12.6296,-12.6372,-12.6399,-12.6508,-12.6667,-12.6761,-12.6945,-12.7094,-12.723,-12.7283,-12.7246,-12.7244,-12.7285,-12.7288,-12.7276,-12.7285,-12.6798,-12.7231,-12.7227,-12.7225,-12.7223,-12.7222,-12.5321,-12.5462,-12.5583,-12.5674,-12.5736,-12.5882,-12.5972,-12.5986,-12.6081,-12.6209,-12.6315,-12.6465,-12.6584,-12.6829,-12.6879,-12.7014,-12.6996,-12.716,-12.7015,-12.7015,-12.6998,-12.6989,-12.7004,-12.7186,-12.719,-12.7194,-12.7197,0,-12.5117,-12.5155,-12.5379,-12.5482,-12.5512,-12.5658,-12.5744,-12.5866,-12.5898,-12.607,-12.611,-12.616,-12.6312,-12.6335,-12.651,-12.6517,-12.6756,-12.6735,-12.6724,-12.672,-12.6869,-12.6854,-12.7346,-12.7411,-12.6992,-12.6996,-12.6999,0,-12.4825,-12.5007,-12.5051,-12.5179,-12.5383,-12.539,-12.5591,-12.5638,-12.5722,-12.5856,-12.5819,-12.5946,-12.5954,-12.6084,-12.6094,-12.6292,-12.6324,-12.6341,-12.6341,-12.6343,-12.6341,-12.6388,-12.6368,-12.6335,-12.6332,-12.633,-12.6328,0,-12.4501,-12.4736,-12.4944,-12.5002,-12.5126,-12.5223,-12.5279,-12.537,-12.5457,-12.5572,-12.5627,-12.576,-12.5831,-12.5934,-12.5945,-12.5847,-12.6187,-12.6054,-12.6203,-12.6204,-12.6274,-12.6269,-12.6703,-12.6325,-12.6324,-12.6323,-12.6322,0,-12.4267,-12.4387,-12.4683,-12.4785,-12.4845,-12.4981,-12.5113,-12.5234,-12.5333,-12.5348,-12.5438,-12.5412,-12.5587,-12.5453,-12.5693,-12.5562,-12.5635,-12.5666,-12.5677,-12.5691,-12.554,-12.5781,-12.6193,-12.6236,-12.5709,-12.5704,-12.57,0,-12.3887,-12.4193,-12.42,-12.4479,-12.4623,-12.4572,-12.4722,-12.4809,-12.4842,-12.4967,-12.5001,-12.5141,-12.5046,-12.5092,-12.5208,-12.5247,-12.5418,-12.5225,-12.5401,-12.5407,-12.5377,-12.5757,-12.5812,-12.6101,-12.5635,-12.5641,-12.5646,0,-12.3595,-12.3743,-12.3791,-12.3858,-12.3975,-12.4093,-12.4265,-12.4406,-12.4489,-12.4589,-12.4732,-12.4928,-12.4865,-12.494,-12.4931,-12.5051,-12.5303,-12.4964,-12.4966,-12.5025,-12.5603,-12.5655,-12.5704,-12.527,-12.5278,-12.5284,-12.5595,0,-12.3236,-12.3391,-12.3524,-12.3668,-12.3763,-12.3936,-12.396,-12.4056,-12.404,-12.4068,-12.4277,-12.4348,-12.4487,-12.4546,-12.4528,-12.4795,-12.4752,-12.4681,-12.4549,-12.4798,-12.4901,-12.4943,-12.4395,-12.4391,-12.4388,-12.4385,0,0,-12.2862,-12.3083,-12.3081,-12.3248,-12.3327,-12.3267,-12.3451,-12.352,-12.3659,-12.3715,-12.3643,-12.3928,-12.3987,-12.4237,-12.4317,-12.4372,-12.4421,-12.4331,-12.4679,-12.4712,-12.4743,-12.4852,-12.4895,-12.438,-12.4379,-12.4377,-12.4376,0,-12.2734,-12.2803,-12.2984,-12.3057,-12.3164,-12.3185,-12.3229,-12.3322,-12.3347,-12.3551,-12.3494,-12.362,-12.3845,-12.3917,-12.3982,-12.4303,-12.425,-12.4343,-12.4511,-12.4647,-12.4684,-12.4716,-12.4832,-12.4873,-12.4369,-12.4369,-12.4369,0,-12.245,-12.2521,-12.261,-12.2787,-12.2854,-12.3,-12.287,-12.3028,-12.3136,-12.3054,-12.3256,-12.3297,-12.3392,-12.3625,-12.373,-12.3666,-12.4094,-12.396,-12.3981,-12.3991,-12.4124,-12.4168,-12.4208,-12.3686,-12.3684,-12.3681,0,0,-12.2336,-12.2478,-12.2553,-12.276,-12.2807,-12.2839,-12.2917,-12.2907,-12.2996,-12.3032,-12.3082,-12.3169,-12.33,-12.3385,-12.3508,-12.376,-12.3779,-12.3875,-12.3908,-12.3934,-12.3959,-12.4098,-12.4142,-12.3672,-12.3672,-12.3672,0,0,-12.2279,-12.2376,-12.2343,-12.2586,-12.2675,-12.2759,-12.2883,-12.2844,-12.2957,-12.2938,-12.2924,-12.2946,-12.3163,-12.3204,-12.3079,-12.346,-12.333,-12.3359,-12.3425,-12.3466,-12.3498,-12.3482,-12.295,0,0,0,0,0,-12.2158,-12.2364,-12.2334,-12.2378,-12.2596,-12.2777,-12.2804,-12.28,-12.2709,-12.2809,-12.2845,-12.2782,-12.3135,-12.3024,-12.3066,-12.3203,-12.3554,-12.3575,-12.3594,-12.3739,-12.3781,-12.3817,0,0,0,0,0,0,-12.2175,-12.2229,-12.2328,-12.2421,-12.247,-12.2769,-12.2615,-12.2619,-12.2698,-12.2684,-12.2777,-12.2785,-12.2781,-12.3002,-12.304,-12.3171,-12.2937,-12.3562,-12.358,-12.3596,-12.3753,-12.3788,-12.3818,0,0,0,0,0,-12.2189,-12.2232,-12.2583,-12.2418,-12.2461,-12.2504,-12.2607,-12.2609,-12.267,-12.2724,-12.273,-12.2659,-12.2785,-12.2816,-12.3025,-12.3154,-12.2911,-12.2925,-12.3573,-12.3588,-12.36,-12.377,0,0,0,0,0,0,-12.2199,-12.2234,-12.2592,-12.2604,-12.2339,-12.2487,-12.251,-12.2601,-12.2704,-12.2713,-12.2604,-12.2592,-12.2791,-12.2814,-12.2838,-12.3149,-12.289,-12.2904,-12.2913,-12.3584,-12.3595,-12.3605,0,0,0,0,0,0,-12.2211,-12.2246,-12.2598,-12.2499,-12.25,-12.2472,-12.2492,-12.2666,-12.2706,-12.2578,-12.2571,-12.2597,-12.2752,-12.2813,-12.2832,-12.3103,-12.2873,-12.2887,-12.2897,-12.2903,-12.3593,-12.3602,0,0,0,0,0,0,-12.2225,-12.2255,-12.2495,-12.2497,-12.2497,-12.2638,-12.2624,-12.2847,-12.2626,-12.2574,-12.2605,-12.2596,-12.2754,-12.2772,-12.2828,-12.3092,-12.31,-12.2874,-12.2883,-12.289,-12.2894,0,0,0,0,0,0,0,-12.2237,-12.2041,-12.2517,-12.2495,-12.2495,-12.2722,-12.2725,-12.2728,-12.2624,-12.2615,-12.2607,-12.26,-12.2795,-12.281,-12.2825,-12.3083,0,0,-12.2872,-12.2879,0,0,0,0,0,0,0,0,-12.2028,-12.2037,-12.2518,-12.252,-12.2523,-12.2722,-12.2725,-12.2728,-12.2622,-12.2616,-12.2609,-12.2603,-12.2799,-12.2811,-12.2824,0,0,0,0,0,0,0,0,0,0,0,0,0,0,0,-12.2518,-12.252,0,-12.2723,-12.2725,-12.2727,-12.2621,-12.2616,-12.261,-12.2605,-12.2803,-12.2812,-12.2823,0,0,0,0,0,0,0,0,0,0,0,0,0,0,0,0,0,0,0,0,0,0,0,0,0,0,0,0,0,0,0,0,0,0,0,0,0,0,0,0,0,0,0,0,0,0,0,0,0,0,0,0,0,0,0,0,0,0,0,0,0,0,0,0,0,0,0,0,0]}]]]